Location: Hidrequent
(50.8162°N, 1.7460°E)
Time: 02:37:00
(UTC+00:00)

Daily predictions for brighter satellites

Satellite Brightness Start Highest point End
(mag) Time Altitude Azimuth Time Altitude Azimuth Time Altitude Azimuth
Cosmos 2263 Rocket 4.4 03:01:26 21° E 03:01:26 21° E 03:04:23 10° NE
ATLAS 3B R/B 3.4 03:30:35 47° NE 03:30:35 47° NE 03:37:09 10° ESE
ALOS 3.9 03:49:11 10° NNE 03:53:17 32° E 03:53:17 32° E
Cosmos 2227 Rocket 4.2 03:57:13 18° N 03:57:13 18° N 03:58:50 10° NNE
Cosmos 2344 4.4 03:53:00 42° NNW 03:56:34 66° NE 04:08:36 10° ESE
NOSS 3-2 (C) 4.3 04:00:07 53° S 04:00:07 53° S 04:06:51 10° SSE
CENTAUR R/B 3.3 04:01:35 59° SSW 04:01:35 59° SSW 04:09:09 10° SSE
NOSS 3-4 (A) 4.2 04:00:50 42° SSE 04:01:53 46° ESE 04:07:52 10° NE
NOSS 3-4 (C) 4.2 04:00:54 41° SSE 04:02:01 46° ESE 04:08:00 10° NE
SL-4 R/B 4.1 04:15:02 24° E 04:15:02 24° E 04:16:38 10° ENE
Cosmos 1680 Rocket 3.9 04:20:02 57° NNE 04:20:35 60° ENE 04:25:50 10° SE
ATLAS 2AS CENTAUR R/B 3.5 04:15:31 18° SSW 04:21:30 57° ESE 04:29:08 10° NE
Cosmos 2297 Rocket 4.1 04:30:31 17° N 04:30:31 17° N 04:32:28 10° NNE
ATLAS 5 CENTAUR R/B 3.6 04:31:18 26° NE 04:31:18 26° NE 04:32:27 10° NE
ATLAS CENTAUR R/B 2.6 04:32:06 36° E 04:32:06 36° E 04:34:46 10° ESE
Lacrosse 5 2.7 04:32:03 39° S 04:33:08 45° SE 04:37:58 10° ENE
ADEOS 3.9 04:28:09 10° NNE 04:33:22 63° ESE 04:38:32 10° S
Cosmos 1328 Rocket 4.3 04:35:39 45° SSE 04:35:39 45° SSE 04:38:48 10° SSE
Cosmos 2112 Rocket 4.2 04:38:53 48° N 04:40:23 73° ENE 04:45:44 10° SSE
Gbstr 26 Del rocket 4.0 04:43:34 34° SE 04:43:34 34° SE 04:45:57 10° SE
Cosmos 1745 Rocket 4.5 04:44:18 43° NW 04:44:18 43° NW 04:49:02 10° N
Cosmos 2263 Rocket 2.0 04:43:11 71° WNW 04:43:25 72° WNW 04:49:09 10° NNE
SJ 16-02 1.4 04:45:52 77° ESE 04:45:56 77° ESE 04:50:23 10° NNE
Meteor 1-26 Rocket 4.1 04:48:59 30° NNW 04:51:57 77° W 04:57:33 10° S
Cosmos 1766 Rocket 3.8 04:58:04 55° NNW 04:58:04 55° NNW 05:01:41 10° N
FENGYUN 3A 3.5 04:52:51 10° NNE 04:58:17 75° WNW 05:03:40 10° SSW
Cosmos 2082 Rocket 4.3 04:57:56 10° NNW 05:02:00 19° NE 05:06:04 10° E
Cosmos 2181 Rocket 3.8 04:56:54 10° NNW 05:03:05 67° W 05:09:09 10° S
Cosmos 1408 Rocket 3.7 04:58:44 10° S 05:03:11 75° E 05:07:38 10° NNE
USA 307 3.1 05:05:08 54° NNW 05:05:25 55° N 05:09:41 10° E
Okean 3 Rocket 4.5 05:07:16 34° NNW 05:07:16 34° NNW 05:09:56 10° N
COSMO-SKYMED 1 2.4 05:02:28 10° S 05:06:49 78° WSW 05:07:59 48° NNW
Cosmos 1709 Rocket 4.0 05:01:46 10° SSW 05:08:02 57° WNW 05:14:20 10° N
USA 308 3.1 05:11:14 51° NNW 05:11:47 56° N 05:16:02 10° E
Lacrosse 4 Rocket 3.3 05:14:32 19° SSW 05:14:32 19° SSW 05:16:12 10° S
Cosmos 1833 Rocket 4.3 05:08:13 11° NNW 05:12:49 29° NE 05:17:42 10° ESE
Meteor 2-3 Rocket 3.7 05:09:33 10° SSW 05:15:15 67° WNW 05:21:03 10° N
CZ-4C R/B 2.5 05:11:05 10° SSW 05:15:58 65° SE 05:22:00 10° NE
CZ-4B R/B 3.3 05:12:23 10° NNE 05:16:56 74° ESE 05:21:20 10° S
MOS 1 Rocket 3.9 05:12:29 10° SSE 05:17:17 62° ENE 05:22:24 10° N
FALCON 9 DEB 3.9 05:18:33 37° S 05:19:10 43° SSE 05:22:15 10° ENE
Meteor 1-10 Rocket 4.4 05:13:54 10° N 05:19:28 70° ENE 05:25:03 10° SSE
Cosmos 1689 Rocket 3.8 05:16:55 10° S 05:18:12 24° S 05:18:12 24° S
ATLAS 3B R/B 2.8 05:17:51 31° WNW 05:21:19 62° SW 05:28:22 10° SSE
COSMOS 2406 4.4 05:18:03 12° NNW 05:23:05 39° NE 05:28:27 10° ESE
SAR-Lupe-4 4.4 05:20:12 10° S 05:22:38 35° SW 05:22:38 35° SW
YAOGAN 6 4.5 05:24:23 10° NNE 05:27:33 31° E 05:30:41 10° SSE
Cosmos 1862 3.9 05:23:57 10° S 05:27:56 60° E 05:31:57 10° NNE
Genesis I 3.7 05:24:57 10° SSW 05:28:42 57° SE 05:32:31 10° NE
deb Chang Zheng 4 3.6 05:26:28 10° N 05:30:44 55° WNW 05:34:59 10° SSW
ALOS 2.7 05:26:32 10° N 05:30:50 37° WNW 05:31:45 34° W
Cosmos 990 Rocket 3.9 05:30:56 10° SSW 05:36:11 77° WNW 05:41:29 10° NNE
Cosmos 2074 Rocket 3.9 05:31:43 10° SSW 05:37:55 79° W 05:44:11 10° N
METEOR-M 4.3 05:33:12 10° N 05:38:18 46° WNW 05:43:22 10° SW
Cosmos 2227 Rocket 4.1 05:39:03 13° NNW 05:39:27 13° NNW 05:42:01 10° N
Meteor 1-31 Rocket 3.3 05:36:58 10° N 05:40:29 35° WNW 05:40:29 35° WNW
USA 305 3.1 05:38:55 33° WNW 05:40:40 61° N 05:44:56 10° E
Cosmos 405 Rocket 2.7 05:40:02 10° S 05:43:43 76° E 05:47:29 10° NNE
Cosmos 1812 2.6 05:42:51 14° NNW 05:46:03 67° W 05:49:51 10° S
EO 1 Delta rocket 3.8 05:43:11 10° S 05:48:05 65° W 05:52:41 10° NNW
Cosmos 2228 Rocket 3.0 05:44:08 10° NNW 05:48:33 69° W 05:52:55 10° S
Cosmos 1515 Rocket 4.1 05:46:48 22° NW 05:48:59 35° W 05:53:02 10° SSW
USA 306 3.1 05:47:01 28° WNW 05:49:08 63° NNE 05:53:25 10° E
CENTAUR R/B 4.4 05:48:50 18° W 05:50:06 18° WSW 05:55:32 10° SW
Cosmos 1782 3.9 05:52:15 24° W 05:52:15 24° W 05:55:09 10° SW
SL-4 R/B 1.7 05:50:37 29° W 05:52:29 79° N 05:56:09 10° E
NOSS 3-4 (A) 3.7 05:48:19 18° WSW 05:52:44 51° NW 05:59:07 10° NE
NOSS 3-4 (C) 3.6 05:48:24 18° WSW 05:52:52 52° NW 05:59:16 10° NE
DMSP B5D1-3 4.5 05:49:42 10° S 05:54:50 70° WSW 06:00:01 10° NNW
SKYMED 2 4.5 05:51:25 10° SSW 05:55:08 27° W 05:56:37 23° WNW
Cosmos 2184 Rocket 4.0 05:49:13 10° SSW 05:55:29 63° WNW 06:01:52 10° N
USA-17 4.4 05:52:06 10° SW 05:55:40 74° SE 05:58:44 10° NE
SJ-12 4.4 05:54:01 10° N 05:57:44 35° WNW 06:01:26 10° SW
USA 234 4.5 05:51:53 10° ENE 05:58:04 43° SE 06:04:15 10° SSW
FALCON 9 DEB 2.9 05:56:59 22° WSW 05:58:55 81° SSE 06:02:08 10° ENE
FALCON 9 DEB 3.2 05:59:52 26° WNW 06:01:40 71° NNE 06:05:08 10° E
Cosmos 1844 Rocket 2.6 05:56:08 10° SW 06:01:47 76° WNW 06:07:31 10° NNE
Cosmos 1707 Rocket 3.7 06:01:14 10° N 06:05:35 73° ENE 06:09:54 10° SSE
EXPRESS MD2 4.2 06:03:37 20° W 06:06:14 61° SSW 06:13:31 10° ESE
Meteor PRIRODA 4.3 06:05:45 10° N 06:09:10 34° WNW 06:12:33 10° SW
ATLAS CENTAUR R/B 2.5 06:08:18 19° W 06:09:40 23° WSW 06:12:48 10° S
COSMOS 2455 3.4 06:03:58 10° SSW 06:09:54 64° ESE 06:15:54 10° NE
RESURS DK-1 2.6 06:06:07 10° SW 06:10:09 48° NW 06:14:13 10° NNE
NOAA 6 4.1 06:05:45 10° NNE 06:10:54 85° ESE 06:16:01 10° SSW
ERBS 3.5 06:11:05 19° NW 06:12:38 27° N 06:15:33 10° NE
ATLAS 2AS CENTAUR R/B 3.2 06:04:53 10° WSW 06:12:42 56° NW 06:20:19 10° NE
EP 3 3.2 06:11:51 23° WSW 06:12:51 65° NW 06:14:46 10° NE
H-2A R/B 3.0 06:09:45 10° N 06:13:33 48° WNW 06:17:17 10° SW
Cosmos 2297 Rocket 4.3 06:14:17 10° NNW 06:14:31 10° N 06:14:45 10° N
Cosmos 1500 Rocket 3.9 06:11:00 10° SW 06:15:06 41° WNW 06:19:14 10° N
Cosmos 1844 3.6 06:10:09 10° SW 06:15:42 74° WNW 06:21:19 10° NNE
Lacrosse 5 1.9 06:11:17 11° WSW 06:16:03 61° NNW 06:21:06 10° ENE
CZ-4B DEB 4.2 06:10:34 10° NNE 06:16:04 87° WNW 06:21:33 10° SSW
Cosmos 1437 Rocket 2.9 06:12:30 10° NNW 06:16:11 48° W 06:19:49 10° S
Cosmos 372 Rocket 4.0 06:14:09 10° SSW 06:19:15 86° ESE 06:24:23 10° NNE
Okean O Rocket 2.2 06:15:13 10° NNE 06:19:39 61° ESE 06:24:03 10° S
Uosat 12 SS-18 rocket 4.5 06:16:46 12° NW 06:21:10 83° SW 06:26:54 10° SE
Cosmos 1242 Rocket 3.7 06:17:39 10° N 06:21:11 44° ENE 06:24:42 10° SSE
PAYLOAD B 4.3 06:16:56 10° NNE 06:22:30 88° ESE 06:28:01 10° SSW
Geosat 4.1 06:18:03 10° SE 06:23:05 81° ENE 06:28:09 10° NNW
SMAP 3.3 06:18:40 10° NNE 06:23:21 76° ESE 06:28:01 10° S
SJ 16-02 2.8 06:22:56 13° W 06:25:05 18° NW 06:28:08 10° N
USA 81 4.2 06:20:16 10° S 06:25:31 82° E 06:30:50 10° N
Cosmos 2263 Rocket 3.5 06:24:56 12° WNW 06:28:24 20° NW 06:32:35 10° NNE
ATLAS 5 CENTAUR R/B 3.2 06:28:25 10° S 06:32:12 38° ESE 06:36:26 10° NE
FALCON 9 DEB 2.9 06:29:04 10° WSW 06:32:16 76° NNW 06:35:30 10° ENE
FALCON 9 DEB 2.9 06:29:08 10° W 06:32:21 74° NNW 06:35:35 10° ENE
Nadezhda 3 Rocket 4.4 06:27:48 10° NNW 06:33:37 41° W 06:39:23 10° SSW
Sich 1 3.1 06:31:20 10° SSW 06:35:43 63° WNW 06:40:09 10° N
Cosmos 1898 Rocket 4.2 06:31:00 10° WSW 06:35:49 34° NW 06:40:41 10° NNE
Cosmos 2218 Rocket 4.4 06:29:46 10° S 06:35:59 69° E 06:42:09 10° NNE
CZ-2C R/B 2.7 06:31:27 10° S 06:36:55 70° WSW 06:42:17 10° NNW
AQUARIUS 4.2 06:32:35 10° NNE 06:37:07 89° WNW 06:41:37 10° SSW
H-2A R/B 2.4 06:33:50 10° N 06:37:36 51° WNW 06:41:18 10° SW
Envisat 3.1 06:32:42 10° N 06:37:41 55° WNW 06:42:37 10° SW
Cosmos 2366 rocket 4.4 06:34:04 10° S 06:40:21 72° E 06:46:37 10° NNE
CORIOLIS 4.3 06:37:00 10° NNE 06:42:31 85° ESE 06:47:57 10° SSW
USA 307 3.0 06:41:22 10° WNW 06:45:43 88° SSW 06:50:02 10° ESE
Cosmos 2082 Rocket 2.6 06:41:29 10° NNW 06:47:12 68° ENE 06:52:54 10° SE
CZ-4B R/B 3.2 06:42:01 10° NNE 06:47:23 81° WNW 06:52:48 10° SSW
NOAA 11 4.4 06:43:36 10° NNE 06:49:07 79° ESE 06:54:37 10° SSW
CZ-4 R/B 3.7 06:46:12 10° NNE 06:49:57 30° E 06:53:41 10° SSE
Cosmos 1862 Rocket 3.6 06:47:14 10° NNW 06:51:42 76° W 06:56:07 10° S
USA 308 3.0 06:47:43 10° WNW 06:52:03 83° SSW 06:56:22 10° ESE
Cosmos 1937 Rocket 4.2 06:48:09 10° WSW 06:52:47 32° NW 06:57:29 10° N
Cosmos 1939 Rocket 3.4 06:48:52 10° NNE 06:52:56 65° ESE 06:57:00 10° S
FALCON 9 DEB 3.0 06:51:58 10° W 06:55:10 64° N 06:58:24 10° ENE
Cosmos 1833 Rocket 2.8 06:51:37 10° NW 06:57:13 66° WSW 07:02:46 10° SSE
Cosmos 1269 Rocket 4.4 06:52:17 10° NNW 06:57:36 69° ENE 07:02:51 10° SSE
